Miscellaneous Local Product
Issued by NWS North Platte, NE

Home | Current Version | Previous Version | Text Only | Print | Product List | Glossary On
Versions: 1 2 3 4 5 6 7 8 9 10 11 12 13 14 15 16 17 18 19 20 21 22 23 24 25 26 27 28 29 30 31 32 33 34 35 36 37 38 39 40 41 42 43 44 45 46 47 48 49 50
000
AXUS43 KLBF 291110
MISLBF


WESTERN AND NORTH CENTRAL NEBRASKA HOURLY WEATHER ROUNDUP
NATIONAL WEATHER SERVICE NORTH PLATTE NE
500 AM CST THU JAN 29 2015

***STATIONS NOT REPORTING VARIABLES SUCH AS SKY/WEATHER OR
PRESSURE ARE PROVIDED BY THE NEBRASKA DEPARTMENT OF
ROADS...RAWS...AND APRS NETWORKS...AND ARE NOT UNDER
NATIONAL WEATHER SERVICE QUALITY CONTROL***

...OBSERVATIONS IN AND NEAR THE EASTERN PANHANDLE OF NEBRASKA...

CITY           SKY/WX    TMP DP  RH WIND       PRES   REMARKS
PINE RIDGE     CLEAR     24  21  88 CALM      30.41R
CHADRON        MOCLDY    26  23  88 CALM      30.43R
ALLIANCE       CLEAR     26  24  92 N8        30.38R WCI  18
SIDNEY         PTCLDY    28  24  85 NW14      30.37R WCI  17
WHITECLAY        N/A     26  22  84 W7          N/A  WCI  19
CRESCENT LAKE    N/A     29  26  87 N14G23      N/A  WCI  18
LISCO            N/A     30  24  81 W8          N/A  WCI  22
LEWELLEN         N/A     29  27  90 NW9         N/A  WCI  21
$$

...OBSERVATIONS IN NORTH CENTRAL NEBRASKA...

CITY           SKY/WX    TMP DP  RH WIND       PRES   REMARKS
VALENTINE      CLOUDY    34  25  69 NW17G25   30.35R WCI  23
THEDFORD       CLOUDY    35  24  65 NW24G33   30.33R WCI  23
AINSWORTH      CLOUDY    33  25  70 NW24G31   30.33R WCI  21
O`NEILL        CLOUDY    37  30  78 NW22G33   30.28R WCI  25
ORD            CLOUDY    37  25  61 NW30G39   30.27R WCI  24
BROKEN BOW     CLOUDY    37  26  64 N22G28    30.29R WCI  26
BROWNLEE         N/A     34  26  70 N24         N/A  WCI  22
SPRINGVIEW       N/A     35  26  69 NW13G28     N/A  WCI  26
BREWSTER         N/A     37  25  62 SW20        N/A  WCI  26
ROSE             N/A     36  30  78 SW24        N/A  WCI  24
NEWPORT          N/A     36  29  75 NW23        N/A  WCI  25
SARGENT          N/A     36  28  72 NE8G15      N/A  WCI  30
COMSTOCK         N/A     39  28  64 S18         N/A  WCI  30
EWING            N/A     36  32  84 NW12G21     N/A  WCI  28
$$

...OBSERVATIONS IN SOUTHWEST NEBRASKA AND FAR NORTHEAST COLORADO...

CITY           SKY/WX    TMP DP  RH WIND       PRES   REMARKS
WRAY           CLOUDY    34  29  81 NW8       30.38R WCI  27
HOLYOKE        FAIR      32  28  86 NW8       30.38R WCI  25
IMPERIAL       CLEAR     30  24  78 N15       30.36R WCI  19
OGALLALA       PTCLDY    30  27  88 NW9       30.38R WCI  21
NORTH PLATTE   CLEAR     28  23  81 NW12      30.35R WCI  18
MCCOOK         CLEAR     31  25  78 N8        30.34R WCI  23
LEXINGTON      MOCLDY    36  26  68 N22       30.31S WCI  25
BRADY            N/A     33  24  71 MISG        N/A
CALLAWAY         N/A     35  27  74 NW15        N/A  WCI  25
$$

...NORTH PLATTE AREA...

CITY           SKY/WX    TMP DP  RH WIND       PRES   REMARKS
AIRPORT        CLEAR     28  23  81 NW12      30.35R WCI  18
DOWNTOWN         N/A     32  24  72 NW6G13      N/A  WCI  26
$$

...SOME WEATHER OBSERVATIONS FROM AROUND THE REGION...

CITY           SKY/WX    TMP DP  RH WIND       PRES   REMARKS
DENVER         CLOUDY    38  29  70 NW8       30.41R WCI  32
LARAMIE        CLOUDY    26  24  92 S3        30.39R
CHEYENNE       CLOUDY    32  24  72 N9        30.39S WCI  24
SCOTTSBLUFF    PTCLDY    34  26  72 W14       30.40R WCI  25
RAPID CITY     CLEAR     31  24  75 N18       30.38R WCI  19
PIERRE         CLOUDY    35  26  69 NW16      30.33R WCI  25
WINNER         CLOUDY    36  26  67 NW21G28   30.33R WCI  25
SIOUX FALLS    CLOUDY    31  25  78 NW24G32   30.18R WCI  17
OMAHA          CLOUDY    36  29  75 NW25G35   30.15R WCI  24
GRAND ISLAND   CLOUDY    38  28  67 N25G35    30.26R WCI  27
KANSAS CITY    CLOUDY    39  31  72 NW16G37   30.11R WCI  30
WICHITA        PTCLDY    47  34  60 N22G28    30.17R
HAYS           CLEAR     37  25  60 N21G26    30.30R WCI  27
LIBERAL        MOCLDY    43  30  61 NW15      30.34R
GOODLAND       CLEAR     30  26  85 N14       30.36R WCI  19
$$



USA.gov is the U.S. government's official web portal to all federal, state and local government web resources and services.